Location: Unspecified
(51.6250°N, 0.8230°E)
Time: 09:40:53
(UTC+01:00)

Cosmos 1674 - Visible Passes

Search period start: 21 October 2017 00:00
Search period end: 30 October 2017 23:00
Orbit: 497 x 523 km, 82.5° (Epoch: 20 October)

Date Brightness Start Highest point End Pass type
(mag) Time Alt. Az. Time Alt. Az. Time Alt. Az.
21 Oct 5.7 05:23:18 10° SE 05:25:50 17° E 05:28:22 10° NE visible
21 Oct 5.9 18:22:42 10° NW 18:25:04 16° W 18:27:27 10° SW visible
22 Oct 6.0 05:07:04 10° ESE 05:09:07 14° E 05:11:10 10° NE visible
22 Oct 2.7 06:40:37 10° SSW 06:44:16 55° WNW 06:47:58 10° N visible
23 Oct 6.1 04:51:03 10° ESE 04:52:25 12° E 04:53:45 10° ENE visible
23 Oct 2.5 06:23:43 10° SSW 06:27:26 70° W 06:31:11 10° N visible
24 Oct 2.5 06:06:53 10° S 06:10:37 87° WNW 06:14:23 10° N visible
25 Oct 2.8 05:50:05 10° S 05:53:48 74° E 05:57:33 10° NNE visible
26 Oct 3.2 05:33:20 10° S 05:37:00 58° E 05:40:42 10° NNE visible
27 Oct 3.6 05:16:38 10° SSE 05:20:12 46° E 05:23:49 10° NNE visible
27 Oct 4.1 06:53:29 10° WSW 06:56:05 18° WNW 06:58:42 10° NNW visible
28 Oct 4.1 05:01:37 22° SE 05:03:26 37° E 05:06:54 10° NNE visible
28 Oct 3.9 06:36:37 12° WSW 06:39:10 21° WNW 06:42:06 10° NNW visible
29 Oct 4.5 03:46:26 29° E 03:46:39 30° E 03:49:58 10° NNE visible
29 Oct 3.6 05:21:25 23° W 05:22:16 25° WNW 05:25:28 10° NNW visible
30 Oct 5.1 03:30:53 22° ENE 03:30:53 22° ENE 03:32:59 10° NE visible
30 Oct 3.5 05:05:50 30° WNW 05:05:50 30° WNW 05:08:46 10° N visible
